Flag for Canada Weather past 2 weeks in Thompson, Manitoba, Canada

Now
52 °F

Sprinkles. Overcast.


Feels Like: 52 °F
Forecast: 47 / 61 °F
Wind: No wind

Location: Thompson

Current Time: Aug 5, 2015 at 6:09:27 AM

Latest Report: Aug 5, 2015 at 5:00 AM


Visibility: 12 mi

Pressure: 30.14 "Hg

Humidity: 94%

Dew point: 50 °F

Location of ThompsonLocation

Historic Weather in Thompson — Graph

°F

Thompson temperature yesterday

Maximum temperature yesterday: 59 °F (at 12:00 PM)
Minimum temperature yesterday: 52 °F (at 7:00 AM)
Average temperature yesterday: 56 °F

Past Weeks' High & Low Weather Summary

 TemperatureHumidityPressure
High84 °F (Jul 26, 4:00 PM)100% (Jul 23, 6:00 AM)30.14 "Hg (Jul 23, 6:00 AM)
Low39 °F (Jul 21, 6:00 AM)32% (Jul 22, 2:00 PM)29.33 "Hg (Jul 29, 5:00 AM)
Average62 °F74%29.78 "Hg
* Reported Jul 21 5:00 AM — Aug 5 5:00 AM, Thompson, Weather by CustomWeather, © 2015

Note: Actual official high and low records may vary slightly from our data, if they occured in-between our weather recording intervals... More about our weather records

Advertising

Thompson weather history for previous 24 hours

 ConditionsComfort  
Time TempWeatherWind HumidityBarometerVisibility
5:00 AM
Wed, Aug 5
52 °FSprinkles. Overcast.No wind94%30.14 "Hg12 mi
4:00 AM52 °FSprinkles. Overcast.No wind94%30.14 "Hg12 mi
3:00 AM52 °FOvercast.No wind94%30.14 "Hg15 mi
2:00 AM52 °FOvercast.3 mph94%30.14 "Hg15 mi
1:00 AM54 °FMostly cloudy.5 mph88%30.13 "Hg15 mi
12:00 AM54 °FPassing clouds.8 mph88%30.12 "Hg15 mi
11:00 PM
Tue, Aug 4
55 °FPassing clouds.2 mph82%30.11 "Hg15 mi
10:00 PM55 °FPartly sunny.2 mph82%30.10 "Hg15 mi
9:00 PM57 °FOvercast.2 mph77%30.10 "Hg15 mi
8:00 PM59 °FOvercast.3 mph72%30.09 "Hg15 mi
7:00 PM59 °FOvercast.6 mph72%30.09 "Hg15 mi
6:00 PM59 °FSprinkles. Overcast.6 mph72%30.08 "Hg15 mi
5:00 PM59 °FSprinkles. More clouds than sun.10 mph77%30.08 "Hg15 mi
4:00 PM59 °FSprinkles. Mostly cloudy.7 mph82%30.09 "Hg15 mi
3:00 PM59 °FScattered showers. Mostly cloudy.6 mph82%30.08 "Hg15 mi
2:00 PM59 °FOvercast.8 mph77%30.07 "Hg15 mi
1:00 PM59 °FOvercast.6 mph77%30.06 "Hg15 mi
12:00 PM59 °FMostly cloudy.8 mph72%30.06 "Hg15 mi
11:00 AM57 °FMostly cloudy.5 mph77%30.06 "Hg15 mi
10:00 AM55 °FOvercast.7 mph82%30.06 "Hg15 mi
9:00 AM54 °FLow clouds.3 mph94%30.06 "Hg15 mi
8:47 AM54 °FMostly cloudy.5 mph88%30.06 "Hg15 mi
8:00 AM54 °FLight rain. Fog.6 mph94%30.06 "Hg5 mi
7:50 AM54 °FDrizzle. Fog.5 mph94%30.06 "Hg5 mi
7:00 AM52 °FDrizzle. Low clouds.7 mph100%30.05 "Hg10 mi
6:00 AM54 °FSprinkles. Passing clouds.6 mph94%30.03 "Hg12 mi
Weather by CustomWeather, © 2015

See weather overviewHow to use our weather pages